Torna al catalogo

STARLINK-32301

AttivoComunicazioniVLEO
NORAD 61664·PAYLOAD·🇺🇸 United States

Lanciato Oct 26, 2024 da Cape Canaveral Space Force Station

Loading…

Prossimi Passaggi (prossime 24 ore)

TLE

AggiornatoSource: CelesTrak SupGP

Epoca: Sep 14, 2026, 22:52 UTC

1 61664C 24193D   26257.95326389  .00052425  00000+0  16865-2 0  2571
2 61664  53.1582 290.6776 0001195  82.2343 182.9221 15.31664364    19

Traccia STARLINK-32301 in tempo reale con AllMySat

Download on the App Store